[[{"header":{"parameterUnit":"m.s-1","parameterCategory":1,"la1":30.2991,"la2":30.254,"lo1":-89.0895,"lo2":-89.0444,"dy":0.0017,"dx":0.0017,"nx":28,"ny":28,"refTime":"2025-05-18T21:00:00:Z","depth":0,"parameterNumber":2,"parameterNumberName":"U-component_of_WINDS"},"data":[0,0,0,0,0,0,0,0,0,0,0,0,0,0,0,0,0,0,0,0,0,0,0,0,0,0,0,0,0,0,0,0,0,0,0,0,0,0,0,0,0,0,0,0,0,0,0,0,0,0,0,0,0,0,0,0,0,0,0.1289,0.129,0,0.1378,0.1379,0.138,0.1424,0.1424,0.1424,0.1424,0.1517,0.1519,0.1521,0,0,0,0,0,0,0,0,0,0,0,0,0,0.1154,0.1156,0.1289,0.129,0.1291,0.1378,0.1379,0.1381,0.1424,0.1424,0.1424,0.1424,0.1516,0.1519,0.1522,0,0,0,0,0,0,0,0,0,0,0,0,0,0.1225,0.1157,0.1288,0.1323,0.1327,0.1378,0.1379,0.1381,0.1424,0.1424,0.1424,0.1424,0.1515,0.1518,0.1522,0.1546,0,0,0.1533,0.1535,0,0,0,0,0,0,0,0,0.1221,0.123,0.1317,0.1321,0.1325,0.139,0.1366,0.1436,0.1424,0.1387,0.1424,0.1424,0.1475,0.1482,0.1498,0.155,0.1554,0.1534,0.1536,0.1538,0.1539,0,0,0,0,0,0,0,0.1216,0.1226,0.1324,0.1318,0.1323,0.1334,0.1344,0.1379,0.143,0.139,0.1394,0.1404,0.1477,0.1495,0.1501,0.1555,0.1534,0.1537,0.1539,0.1541,0.1629,0.1629,0,0,0,0,0,0,0.1205,0.1222,0.1321,0.1327,0.1272,0.1336,0.1347,0.1369,0.143,0.1439,0.1404,0.1405,0.1488,0.1497,0.1504,0.1535,0.1538,0.1541,0.1543,0.1629,0.1629,0.1629,0,0,0,0,0,0,0.1202,0.1214,0.1318,0.1275,0.1289,0.1339,0.1363,0.1371,0.1389,0.144,0.1449,0.1413,0.1489,0.1499,0.1535,0.1539,0.1543,0.1546,0.1628,0.1629,0.1629,0.1596,0,0,0,0,0,0,0.1198,0.1212,0.1222,0.1275,0.1291,0.1347,0.1363,0.1373,0.1395,0.1398,0.1451,0.1459,0.1489,0.1529,0.1538,0.1544,0.1549,0.1628,0.1628,0.1629,0.1597,0.1596,0.1594,0,0,0,0,0,0.1193,0.121,0.1223,0.1234,0.1305,0.1347,0.1356,0.139,0.1395,0.1405,0.1438,0.1458,0.1537,0.1532,0.1543,0.155,0.1628,0.1628,0.1629,0.1598,0.1596,0.1594,0,0,0,0,0,0,0.1157,0.1218,0.1232,0.1267,0.1301,0.1354,0.1368,0.1387,0.1421,0.1422,0.1463,0.1475,0.1506,0.1532,0.1526,0.1575,0.1584,0.1587,0.1557,0.1555,0.1554,0.1547,0.1552,0,0,0,0,0,0.1153,0.1182,0.1234,0.1259,0.1276,0.1318,0.1338,0.1361,0.1399,0.1414,0.1449,0.1484,0.1517,0.1538,0.1571,0.1601,0.1612,0.1611,0.1609,0.1607,0.1609,0.1626,0.1625,0.163,0.163,0.163,0,0,0.1146,0.1182,0.1198,0.1253,0.1282,0.1311,0.1331,0.1361,0.1382,0.1418,0.1454,0.148,0.1522,0.1555,0.1571,0.1577,0.161,0.1608,0.1606,0.1609,0.1626,0.1625,0.1625,0.163,0.163,0.163,0,0,0.1146,0.1177,0.1201,0.1229,0.1273,0.1301,0.1307,0.1356,0.1375,0.1411,0.1438,0.1464,0.152,0.1549,0.157,0.1579,0.1598,0.1588,0.1579,0.1595,0.1595,0.1595,0.1597,0.1597,0.159,0.159,0.159,0,0.1131,0.1176,0.1211,0.1239,0.1262,0.1294,0.1318,0.1344,0.1397,0.1411,0.1417,0.1487,0.1518,0.1557,0.1558,0.1575,0.1582,0.1583,0.1592,0.1592,0.1593,0.1595,0.1596,0.1588,0.1589,0.1589,0.1589,0,0.1155,0.1185,0.1199,0.1248,0.1272,0.1298,0.1336,0.1356,0.1376,0.1404,0.1439,0.1477,0.1517,0.1528,0.1549,0.1569,0.1572,0.1584,0.1594,0.159,0.1593,0.1594,0.1586,0.1587,0.1587,0.1588,0,0,0.1137,0.1203,0.1207,0.1229,0.1279,0.1303,0.1329,0.1368,0.1384,0.1419,0.1441,0.1487,0.1498,0.1523,0.1546,0.156,0.1563,0.1571,0.1573,0.1568,0.1587,0.1577,0.1578,0.1576,0.1576,0.1576,0.1583,0,0.1144,0.1193,0.1224,0.1261,0.1289,0.1319,0.1342,0.1374,0.14,0.1427,0.1455,0.1486,0.1499,0.1514,0.1529,0.1559,0.1567,0.1559,0.1597,0.1598,0.1585,0.1579,0.157,0.1574,0.1585,0.1585,0.1585,0,0.1159,0.1192,0.1231,0.1275,0.1288,0.1308,0.1345,0.1371,0.1408,0.1425,0.1451,0.1475,0.1504,0.1511,0.155,0.1544,0.1561,0.1578,0.1579,0.1584,0.1591,0.1584,0.1576,0.1577,0.1587,0.1587,0.1587,0,0.1141,0.1195,0.1225,0.1242,0.1296,0.1309,0.1331,0.1368,0.1389,0.1421,0.1435,0.147,0.149,0.1516,0.1548,0.1551,0.1584,0.1594,0.1599,0.1598,0.1605,0.1604,0.16,0.1616,0.1616,0.1616,0.1616,0,0.1146,0.1169,0.1217,0.1235,0.1261,0.1296,0.132,0.1346,0.1378,0.1401,0.1429,0.1451,0.1492,0.1518,0.1543,0.1571,0.158,0.1595,0.1601,0.1592,0.159,0.1604,0.1604,0.1616,0.1616,0.1616,0.1616,0,0.1131,0.1164,0.1199,0.1245,0.1257,0.1274,0.1314,0.1332,0.1359,0.1388,0.1396,0.1437,0.1469,0.1504,0.1548,0.1565,0.1591,0.1601,0.1578,0.1582,0.1585,0.1584,0.1589,0.1591,0.1606,0.1606,0.1605,0,0.1132,0.115,0.1197,0.1215,0.1236,0.1264,0.1285,0.132,0.134,0.1382,0.1395,0.1429,0.1458,0.1507,0.1541,0.1574,0.1584,0.1584,0.159,0.1579,0.1584,0.1582,0.1583,0.1582,0.1582,0.1582,0.1581,0,0.1129,0.1144,0.1173,0.1207,0.1231,0.1259,0.1289,0.1301,0.1342,0.1363,0.1395,0.1418,0.1461,0.1494,0.1531,0.1554,0.1574,0.1579,0.1582,0.1573,0.1559,0.1566,0.1573,0.1579,0.1579,0.1579,0.1579,0.158,0.1122,0.1139,0.1174,0.1205,0.123,0.1257,0.1276,0.1304,0.1331,0.1369,0.1388,0.142,0.1454,0.1506,0.1528,0.1553,0.156,0.1564,0.1565,0.1565,0.1562,0.1554,0.156,0.156,0.156,0.1561,0.1561,0,0.1121,0.1145,0.1172,0.1212,0.1235,0.1251,0.1284,0.1303,0.133,0.1361,0.1388,0.1424,0.1456,0.1491,0.1524,0.1538,0.1548,0.1545,0.1545,0.1549,0.1555,0.1549,0.1537,0.1537,0.1537,0.1537,0.1537,0.1537,0.1123,0.1151,0.117,0.121,0.1234,0.1265,0.1283,0.1307,0.1331,0.137,0.1396,0.1418,0.1451,0.1486,0.1515,0.1525,0.1535,0.153,0.1542,0.1547,0.1549,0.1551,0.1546,0.1533,0.1532,0.1535,0.1535,0.1535]},{"header":{"parameterUnit":"m.s-1","parameterCategory":1,"la1":30.2991,"la2":30.254,"lo1":-89.0895,"lo2":-89.0444,"dy":0.0017,"dx":0.0017,"nx":28,"ny":28,"refTime":"2025-05-18T21:00:00:Z","depth":0,"parameterNumber":3,"parameterNumberName":"V-component_of_WINDS"},"data":[0,0,0,0,0,0,0,0,0,0,0,0,0,0,0,0,0,0,0,0,0,0,0,0,0,0,0,0,0,0,0,0,0,0,0,0,0,0,0,0,0,0,0,0,0,0,0,0,0,0,0,0,0,0,0,0,0,0,6.3504,6.3505,0,6.3567,6.3567,6.3568,6.3509,6.3507,6.3505,6.3503,6.3562,6.3566,6.3569,0,0,0,0,0,0,0,0,0,0,0,0,0,6.3327,6.3331,6.3504,6.3505,6.3506,6.3567,6.3568,6.3568,6.351,6.3507,6.3504,6.3502,6.3561,6.3565,6.357,0,0,0,0,0,0,0,0,0,0,0,0,0,6.3398,6.3332,6.3504,6.3484,6.3483,6.3567,6.3568,6.3569,6.351,6.3507,6.3503,6.35,6.3559,6.3565,6.357,6.3675,0,0,6.3587,6.359,0,0,0,0,0,0,0,0,6.3394,6.3405,6.3486,6.3486,6.3484,6.3527,6.3527,6.3604,6.3511,6.35,6.3503,6.3498,6.3553,6.3559,6.3578,6.3678,6.3681,6.3588,6.3591,6.3594,6.3595,0,0,0,0,0,0,0,6.339,6.3402,6.3529,6.3487,6.3486,6.347,6.3476,6.3541,6.3545,6.3501,6.3497,6.3505,6.3551,6.3573,6.3579,6.3681,6.3588,6.3593,6.3596,6.3598,6.3867,6.3871,0,0,0,0,0,0,6.3388,6.3398,6.3527,6.3531,6.343,6.3476,6.3483,6.3517,6.3544,6.3545,6.3508,6.3502,6.3565,6.3572,6.3581,6.3704,6.3594,6.3599,6.3602,6.3864,6.3868,6.3872,0,0,0,0,0,0,6.3384,6.34,6.3524,6.3463,6.3478,6.3483,6.3521,6.352,6.3541,6.355,6.355,6.3529,6.3562,6.3573,6.3652,6.3705,6.3602,6.3607,6.3859,6.3865,6.387,6.3952,0,0,0,0,0,0,6.3379,6.3399,6.3441,6.3465,6.3481,6.3597,6.3525,6.3524,6.3551,6.3544,6.357,6.3571,6.356,6.3644,6.3657,6.3711,6.3611,6.3854,6.3862,6.3868,6.3944,6.3959,6.3972,0,0,0,0,0,6.3373,6.3461,6.3443,6.3459,6.3534,6.36,6.3609,6.3597,6.3556,6.3597,6.3602,6.357,6.3697,6.3652,6.3667,6.3723,6.3851,6.386,6.3868,6.3938,6.3956,6.3972,0,0,0,0,0,0,6.3441,6.3464,6.3444,6.3543,6.357,6.359,6.3641,6.3617,6.3656,6.3647,6.3629,6.3635,6.3718,6.3728,6.3678,6.3825,6.3767,6.3779,6.3815,6.3833,6.3846,6.3842,6.3616,0,0,0,0,0,6.3468,6.3522,6.3537,6.3622,6.3637,6.3637,6.3665,6.3653,6.368,6.3691,6.3702,6.3728,6.3773,6.3803,6.3846,6.3945,6.3948,6.3991,6.4005,6.4016,6.4026,6.4077,6.4095,6.39,6.39,6.39,0,0,6.3524,6.3542,6.3577,6.3636,6.3656,6.371,6.3647,6.3707,6.3745,6.3699,6.3775,6.3784,6.3811,6.39,6.3939,6.3911,6.4081,6.4027,6.4036,6.404,6.4088,6.4106,6.4122,6.3906,6.3905,6.3904,0,0,6.3652,6.3672,6.3744,6.3765,6.3796,6.3795,6.3812,6.3835,6.384,6.3915,6.3881,6.3925,6.4005,6.4025,6.4046,6.4179,6.415,6.4193,6.4266,6.4316,6.4331,6.4344,6.439,6.4407,6.4203,6.4203,6.4204,0,6.3716,6.3797,6.3784,6.3846,6.3872,6.3833,6.3904,6.3925,6.3967,6.3985,6.3953,6.405,6.4066,6.4158,6.419,6.4209,6.4226,6.419,6.433,6.4344,6.4356,6.4399,6.4416,6.4208,6.4208,6.4207,6.4207,0,6.3874,6.393,6.3984,6.4027,6.4059,6.4126,6.412,6.4153,6.4138,6.4139,6.4215,6.4232,6.4276,6.4297,6.4283,6.4387,6.4368,6.4333,6.4275,6.438,6.442,6.4436,6.4215,6.4214,6.4212,6.4211,0,0,6.4048,6.4082,6.4101,6.4119,6.4149,6.4191,6.4254,6.4299,6.4327,6.4357,6.4407,6.4474,6.4442,6.4466,6.4453,6.4496,6.4598,6.4456,6.4456,6.448,6.471,6.4735,6.4755,6.4579,6.4582,6.4585,6.4707,0,6.4176,6.4287,6.4276,6.4381,6.4431,6.4394,6.4448,6.4471,6.4473,6.4514,6.4516,6.4564,6.4518,6.4532,6.4574,6.4577,6.4643,6.4568,6.4624,6.4626,6.4617,6.4776,6.4803,6.4919,6.4723,6.4726,6.4728,0,6.4341,6.4377,6.4487,6.4507,6.4527,6.4577,6.4615,6.4656,6.468,6.4678,6.4704,6.4682,6.4743,6.4684,6.4765,6.4714,6.4736,6.4741,6.4745,6.4749,6.4683,6.4783,6.4955,6.4972,6.4753,6.4751,6.4749,0,6.4454,6.4531,6.4606,6.4622,6.4648,6.4683,6.4695,6.4716,6.4742,6.4775,6.4791,6.483,6.4851,6.4881,6.487,6.4828,6.4953,6.4893,6.4951,6.4952,6.4979,6.4977,6.5156,6.4995,6.4995,6.4995,6.4994,0,6.4598,6.4666,6.4657,6.4703,6.4777,6.4762,6.4835,6.4842,6.4861,6.4905,6.4875,6.4918,6.4901,6.4942,6.4933,6.5001,6.5011,6.501,6.5006,6.5012,6.5012,6.5025,6.5017,6.4999,6.4998,6.4997,6.4997,0,6.4738,6.4735,6.4814,6.4831,6.4837,6.4891,6.4904,6.4946,6.4946,6.5003,6.5015,6.5014,6.506,6.5052,6.5103,6.5097,6.5181,6.5168,6.5173,6.517,6.5228,6.5222,6.542,6.5445,6.527,6.5271,6.5273,0,6.4829,6.4881,6.4904,6.4932,6.4947,6.4993,6.5019,6.5005,6.5034,6.5063,6.5101,6.5145,6.5179,6.5254,6.5256,6.5294,6.5281,6.5348,6.5287,6.529,6.528,6.5277,6.5281,6.536,6.5362,6.5364,6.5365,0,6.4991,6.4986,6.5027,6.5066,6.5099,6.5129,6.5156,6.518,6.5168,6.5201,6.5248,6.5275,6.5326,6.5369,6.5404,6.5414,6.5387,6.5385,6.54,6.5405,6.5405,6.5404,6.5205,6.538,6.5378,6.5377,6.5377,6.5376,6.5109,6.5152,6.5174,6.5219,6.5237,6.5263,6.5302,6.5306,6.5346,6.5387,6.5376,6.5429,6.5448,6.5493,6.5506,6.5546,6.5521,6.5543,6.5549,6.5554,6.556,6.54,6.5553,6.5552,6.5552,6.5551,6.5551,0,6.5267,6.5279,6.5321,6.5359,6.5394,6.5367,6.5394,6.5424,6.5472,6.5493,6.5527,6.5579,6.562,6.5625,6.5663,6.5694,6.5682,6.5704,6.5701,6.5703,6.5582,6.5564,6.5712,6.5712,6.5712,6.5712,6.5712,6.5712,6.5354,6.5425,6.5423,6.5501,6.5512,6.5564,6.5582,6.5604,6.562,6.5681,6.5715,6.5718,6.5732,6.577,6.5805,6.5805,6.582,6.5847,6.5842,6.5728,6.5712,6.5697,6.568,6.585,6.585,6.596,6.5961,6.5962]}]]